Henderson, KY

10:53 AM CST on December 07, 2019 (GMT -0600)
Henderson City-County

Weather History for KEHR - October, 2019

Change the Weather History Date:

Wednesday, October 9, 2019

  Actual Average Record
Temperature  
Mean Temperature 58 °F -  
Max Temperature 78 °F 73 °F 90 °F (1938)
Min Temperature 39 °F 49 °F 26 °F (2000)
Degree Days  
Heating Degree Days 6    
Growing Degree Days 8 (Base 50)    
Moisture  
Dew Point 47 °F    
Average Humidity 77    
Maximum Humidity 100    
Minimum Humidity 32    
Precipitation  
Precipitation 0.00 in - - ()
Sea Level Pressure  
Sea Level Pressure 30.10 in    
Wind  
Wind Speed 2 mph (ESE)    
Max Wind Speed 9 mph    
Max Gust Speed -    
Visibility 8 miles    
Events      
Averages and records for this station are not official NWS values.
T = Trace of Precipitation, MM = Missing Value Source: NWS Daily Summary

Daily Weather History Graph

Daily Weather History Graph

Search for Another Location

Airport or City:

Astronomy

Oct. 09, 2019 Rise Set
Actual Time 6:53 AM CDT 6:22 PM CDT
Civil Twilight 6:27 AM CDT 6:48 PM CDT
Nautical Twilight 5:56 AM CDT 7:18 PM CDT
Astronomical Twilight 5:26 AM CDT 7:49 PM CDT
Moon 4:48 PM CDT (10/9) 2:45 AM CDT (10/9)
Length of Visible Light 12h 21m
Length of Day
11h 28m
Waxing Gibbous, 85% of the Moon is Illuminated
Oct 9
Waxing Gibbous
Oct 13
Full
Oct 21
Last Quarter
Oct 27
New
Nov 4
First Quarter

Hourly Weather History & Observations

Time (CDT) Temp. Dew Point Humidity Pressure Visibility Wind Dir Wind Speed Gust Speed Precip Events Conditions
12:56 AM 44.1 °F 42.1 °F 93% 30.11 in 10.0 mi Calm Calm - N/A   Clear
1:56 AM 44.1 °F 42.1 °F 93% 30.11 in 10.0 mi Calm Calm - N/A   Clear
2:56 AM 41.0 °F 41.0 °F 100% 30.10 in 10.0 mi Calm Calm - N/A   Clear
3:56 AM 42.1 °F 41.0 °F 96% 30.11 in 10.0 mi Calm Calm - N/A   Clear
4:13 AM 42.8 °F 42.8 °F 100% 30.11 in 2.5 mi Calm Calm - N/A   Clear
4:21 AM 42.8 °F 42.8 °F 100% 30.11 in 9.0 mi Calm Calm - N/A   Clear
4:56 AM 43.0 °F 42.1 °F 97% 30.11 in 10.0 mi Calm Calm - N/A   Clear
5:00 AM 41.0 °F 39.2 °F 93% 30.11 in 1.8 mi Calm Calm - N/A   Clear
5:11 AM 42.8 °F 41.0 °F 93% 30.11 in 3.0 mi Calm Calm - N/A   Clear
5:56 AM 41.0 °F 39.9 °F 96% 30.13 in 10.0 mi Calm Calm - N/A   Clear
6:41 AM 39.2 °F 39.2 °F 100% 30.13 in 1.8 mi Calm Calm - N/A   Clear
6:54 AM 39.2 °F 37.4 °F 93% 30.14 in 3.0 mi Calm Calm - N/A   Clear
6:56 AM 39.0 °F 39.0 °F 100% 30.14 in 2.5 mi Calm Calm - N/A   Clear
7:06 AM 39.2 °F 39.2 °F 100% 30.14 in 10.0 mi Calm Calm - N/A   Clear
7:56 AM 51.1 °F 46.9 °F 86% 30.16 in 10.0 mi East 3.5 mph - N/A   Clear
8:56 AM 57.0 °F 48.9 °F 74% 30.16 in 10.0 mi East 6.9 mph - N/A   Clear
9:56 AM 63.0 °F 54.0 °F 72% 30.16 in 10.0 mi Calm Calm - N/A   Clear
10:56 AM 69.1 °F 55.9 °F 63% 30.15 in 10.0 mi Variable 5.8 mph - N/A   Clear
11:56 AM 72.0 °F 54.0 °F 53% 30.14 in 10.0 mi ESE 5.8 mph - N/A   Clear
12:56 PM 75.0 °F 53.1 °F 46% 30.11 in 10.0 mi SE 8.1 mph - N/A   Clear
1:56 PM 75.9 °F 52.0 °F 43% 30.08 in 9.0 mi ENE 5.8 mph - N/A   Clear
2:56 PM 78.1 °F 48.0 °F 35% 30.06 in 10.0 mi SE 9.2 mph - N/A   Clear
3:38 PM 78.8 °F 48.2 °F 34% 30.04 in 2.0 mi ESE 8.1 mph - N/A   Haze
3:46 PM 78.8 °F 46.4 °F 32% 30.04 in 10.0 mi SSE 8.1 mph - N/A   Clear
4:56 PM 77.0 °F 50.0 °F 39% 30.03 in 10.0 mi SE 6.9 mph - N/A   Clear
5:56 PM 73.9 °F 48.9 °F 41% 30.04 in 10.0 mi SE 4.6 mph - N/A   Clear
6:56 PM 66.9 °F 51.1 °F 57% 30.06 in 10.0 mi East 3.5 mph - N/A   Clear
7:56 PM 66.0 °F 55.9 °F 70% 30.07 in 10.0 mi East 6.9 mph - N/A   Clear
8:56 PM 63.0 °F 57.0 °F 81% 30.07 in 10.0 mi East 6.9 mph - N/A   Clear
9:56 PM 60.1 °F 55.9 °F 86% 30.08 in 10.0 mi East 4.6 mph - N/A   Clear
10:56 PM 59.0 °F 55.9 °F 90% 30.07 in 10.0 mi East 4.6 mph - N/A   Clear
11:56 PM 57.9 °F 55.9 °F 93% 30.06 in 10.0 mi East 6.9 mph - N/A   Clear